Weather in Kholodnogorskiy

Russia / Stavropol Krai     44°57′25″N   42°06′04″E
temp.,
°C
wind,
m/s
gust,
m/s
humid.,
%
clouds,
%
prec.,
mm/h
press.,
hPa
HPBL,
m
15 april, thu
thu1500:00+6w119082 0.0 101810
03:00+6sw118840 0.0 101810
06:00+6s118611 0.0 101810
09:00+12sse00645 0.0 1018440
12:00+16nw344671 0.0 10171566
15:00+16nw3448100 0.0 10161696
18:00+14n2265100 0.0 101742
21:00+11ne117140 0.0 101810
16 april, fri
fri1600:00+9se117532 0.0 101810
03:00+8se117926 0.0 101810
06:00+9se2279100 0.0 101811
09:00+14se246249 0.0 1018524
12:00+17ese4551100 0.0 10171463
15:00+19se4545100 0.1 10152362
18:00+10nnw5796100 14.4 1019421
21:00+9n1295100 14.4 1021234
17 april, sat
sat1700:00+9n1196100 0.0 102034
03:00+9nw3698100 1.2 1019389
06:00+8w51095100 4.9 1022614
09:00+8nw3493100 5.3 1023442
12:00+12wnw4565100 0.1 10221188
15:00+11nw3463100 0.1 10221039
18:00+10ssw1275100 0.1 1023235
21:00+9ssw2284100 0.1 102370
18 april, sun
sun1800:00+8se118995 0.0 102214
03:00+8e1187100 0.0 102121
06:00+8ese2390100 0.0 1021107
09:00+10se3583100 0.1 1019303
12:00+10ssw1186100 0.1 1019205
15:00+11ne2285100 0.2 1019246
18:00+10e0297100 1.1 102099
21:00+10e1198100 6.0 102119
19 april, mon
mon1900:00+9ese2297100 0.3 102145
03:00+8e2398100 0.3 102163
06:00+8ese3799100 0.0 1022232
09:00+11ese6992100 0.0 1021479
12:00+14ese7980100 0.0 1021701
15:00+16ese91070100 0.0 1019847
18:00+14ese9147784 0.0 1018728
21:00+12ese101872100 0.0 1017650